AISSAT 1 (36797 NORAD) Tracking and Keplerian Element Data

This shows tracking and keplerian element data for the satellite.

Feedback or suggestion? Click here.




ElementValue
Catalog36797
NameAISSAT 1
Epoch Orbit60725
Epoch Day269.70105841
Epoch Year2021
RAAN79.1426
Inclination98.2272
Eccentricity0.0010055
Argument of Perigee312.6758
Mean Anonmoly47.3608
Mean Motion14.86564547
Decay Rate4.37E-06
L11 36797U 10035C 21269.70105841 .00000437 00000-0 56016-4 0 9993
L22 36797 98.2272 79.1426 0010055 312.6758 47.3608 14.86564547607254

Live tracking and technical data element details for AISSAT 1 (NORAD 36797). AISSAT 1 can be tracked NOW for your location showing map with azimuth and elevation plus other details from your city location.

Track the satellite on the map from your city or location and see movement details for azimuth, elevation, latitude, longitude, range, height, and movement on the map or in text.







IsCatalogInMostPopularTable: catalog: 36797, numindb: 24964
Update: records affected: 1



GetName: 36797 AISSAT 1

Hit Count: updated at: Tue, 28 Sep 2021 17:10:13 GMT